Voltar ao catálogo

CZ-3C DEB

AtivoGTO
NORAD 40870·DEBRIS·🇨🇳 China

Lançado Feb 24, 2012 de Xichang Satellite Launch Center

Loading…

TLE

ObsoletoSource: Space-Track

Época: Sep 13, 2026, 20:23 UTC

1 40870U 12008AL  26256.84969479  .00000773  00000-0  12696-1 0  9999
2 40870  16.9118 149.2924 7313854  64.5709 351.6011  2.05394905  1993

Acompanhe CZ-3C DEB em tempo real com AllMySat

Download on the App Store